Temperature
2 2 2 2 2 2 2 2 2 2 3 3 3 3 3 3 3 3 3 3 3 3 3 3 3 3 3 3 3 2 2 2 2 2 2 2 2 2 2 2 2 2 2
1 1 1 1 2 2 2 2 2 2 2 2 2 2 2 2 2 2 3 2 3 3 2 2 2 2 2 2 2 2 2 2 1 1 2 2 2 1 2 2 2 2 2
1 1 1 1 1 1 1 1 1 1 2 2 2 2 2 2 2 2 2 2 2 2 2 2 2 2 2 1 1 1 1 1 1 1 1 1 1 1 1 1 1 1 1
0 0 1 1 1 1 1 1 1 1 1 1 1 1 1 1 1 1 1 2 1 1 1 1 1 1 1 1 1 1 1 1 1 0 0 0 1 0 0 1 1 1 1
-0 0 0 0 0 0 0 0 0 0 0 1 1 1 1 1 1 1 1 1 1 1 1 1 1 0 0 0 1 1 0 0 0 0 0 0 -0 -0 -0 -0 -0 0 0
-0 -0 -0 -0 -0 -0 -0 -0 -0 -0 0 0 0 0 0 0 0 0 0 0 0 0 0 0 0 0 0 0 0 0 -0 -0 -0 -0 -0 -0 -0 -0 -1 -1 -1 -1 -0
-1 -1 -1 -1 -1 -1 -1 -1 -1 -1 -0 -0 -0 -0 -0 -0 -0 -0 -0 -0 -0 -1 -1 -1 -0 -0 -0 -0 -0 -0 -0 -1 -1 -1 -1 -1 -1 -1 -1 -1 -1 -1 -1
-1 -1 -1 -1 -1 -1 -1 -1 -1 -1 -1 -1 -1 -1 -1 -1 -1 -1 -1 -1 -1 -1 -1 -1 -1 -1 -1 -1 -1 -1 -1 -1 -1 -1 -1 -1 -1 -1 -1 -1 -1 -1 -1
-2 -2 -2 -2 -2 -2 -2 -2 -1 -2 -1 -1 -1 -1 -1 -2 -2 -2 -1 -1 -1 -1 -2 -2 -1 -1 -1 -1 -1 -1 -1 -1 -1 -1 -2 -2 -2 -2 -2 -2 -2 -2 -2
-2 -2 -2 -2 -2 -2 -2 -2 -2 -2 -2 -2 -2 -2 -2 -2 -2 -2 -2 -2 -2 -2 -2 -2 -2 -2 -2 -2 -2 -2 -1 -1 -2 -2 -2 -2 -2 -2 -2 -2 -2 -2 -2
-2 -3 -2 -2 -2 -2 -3 -3 -3 -3 -3 -3 -3 -3 -3 -3 -3 -3 -3 -3 -3 -3 -3 -3 -2 -2 -2 -2 -2 -2 -2 -2 -2 -2 -2 -2 -2 -2 -2 -2 -2 -2 -2
-3 -3 -3 -3 -3 -3 -3 -3 -3 -3 -3 -3 -3 -3 -3 -4 -4 -3 -3 -3 -3 -3 -3 -3 -3 -3 -3 -3 -3 -3 -3 -3 -2 -2 -2 -3 -2 -2 -2 -2 -3 -2 -3
-3 -3 -3 -3 -3 -3 -4 -4 -4 -4 -4 -4 -4 -4 -4 -4 -4 -4 -4 -4 -3 -3 -4 -4 -3 -3 -3 -3 -3 -3 -3 -3 -3 -3 -3 -3 -3 -3 -3 -3 -3 -3 -3
-4 -4 -4 -4 -4 -4 -4 -4 -4 -4 -5 -5 -5 -5 -5 -4 -4 -4 -4 -4 -4 -4 -4 -4 -4 -4 -3 -3 -3 -3 -3 -3 -4 -4 -4 -4 -3 -3 -3 -3 -3 -3 -3
-4 -4 -4 -4 -4 -4 -5 -5 -5 -5 -5 -5 -5 -5 -5 -5 -5 -5 -5 -4 -4 -4 -4 -4 -4 -4 -4 -4 -4 -4 -4 -4 -4 -4 -4 -4 -4 -4 -4 -4 -4 -3 -3
-4 -4 -5 -5 -5 -5 -5 -5 -5 -5 -5 -6 -6 -6 -6 -6 -5 -5 -5 -5 -5 -5 -5 -5 -5 -5 -5 -4 -4 -4 -5 -5 -4 -4 -4 -4 -4 -4 -4 -4 -4 -4 -4
-5 -5 -5 -5 -5 -5 -5 -5 -5 -5 -6 -6 -6 -6 -6 -6 -6 -6 -5 -5 -5 -5 -5 -5 -5 -5 -5 -5 -5 -5 -5 -5 -5 -5 -5 -5 -5 -4 -4 -4 -4 -4 -4
-5 -5 -5 -5 -5 -5 -6 -6 -6 -6 -6 -6 -6 -6 -6 -6 -6 -6 -6 -6 -6 -5 -5 -6 -6 -6 -6 -6 -6 -6 -6 -5 -5 -5 -5 -5 -5 -5 -5 -5 -5 -5 -4
-5 -5 -5 -5 -6 -6 -6 -6 -6 -6 -6 -6 -6 -6 -6 -6 -6 -6 -6 -6 -6 -6 -6 -6 -6 -6 -6 -6 -6 -6 -6 -6 -6 -6 -6 -5 -5 -5 -5 -5 -5 -5 -5
-5 -6 -6 -6 -6 -6 -6 -6 -6 -6 -6 -6 -6 -6 -6 -6 -6 -6 -6 -6 -6 -6 -6 -6 -6 -6 -6 -6 -6 -6 -6 -6 -6 -6 -6 -6 -6 -5 -5 -5 -5 -5 -5
-6 -6 -6 -6 -6 -6 -6 -6 -6 -7 -7 -7 -7 -7 -7 -7 -6 -6 -6 -6 -6 -6 -6 -6 -6 -6 -6 -6 -6 -6 -6 -6 -6 -6 -6 -6 -6 -6 -6 -5 -5 -5 -5
-6 -6 -6 -6 -6 -6 -6 -7 -7 -7 -7 -7 -7 -7 -7 -6 -6 -6 -7 -6 -6 -6 -6 -6 -6 -6 -6 -6 -6 -6 -6 -6 -6 -6 -6 -6 -6 -6 -6 -6 -6 -5 -5
-6 -6 -6 -6 -6 -7 -7 -7 -7 -7 -7 -7 -7 -7 -7 -7 -7 -7 -7 -7 -7 -7 -7 -7 -6 -6 -6 -6 -7 -7 -7 -6 -6 -6 -6 -6 -6 -6 -6 -6 -6 -6 -6
-7 -7 -6 -7 -7 -7 -7 -7 -7 -7 -7 -7 -7 -7 -7 -7 -7 -7 -7 -7 -7 -7 -7 -7 -7 -7 -7 -7 -6 -6 -6 -6 -6 -6 -6 -6 -6 -6 -6 -6 -6 -6 -6
-7 -7 -7 -7 -7 -7 -7 -7 -7 -7 -7 -7 -7 -7 -7 -7 -7 -7 -7 -7 -7 -7 -7 -7 -7 -7 -7 -6 -6 -6 -6 -6 -6 -6 -6 -6 -6 -6 -6 -6 -6 -6 -6
-7 -7 -7 -7 -7 -7 -7 -7 -7 -7 -7 -7 -7 -7 -7 -7 -7 -7 -7 -7 -7 -7 -7 -7 -7 -7 -7 -6 -6 -6 -6 -6 -6 -6 -6 -6 -6 -6 -6 -6 -6 -6 -6
Wind_Speed
2 1 1 1 1 1 1 2 2 2 2 2 3 3 4 4 3 3 3 3 4 4 4 4 5 4 3 3 3 3 3 3 6 6 3 3 4 5 6 6 8 8 9
2 2 2 2 1 1 2 3 2 2 2 2 2 2 3 3 3 3 4 3 4 5 5 5 5 4 4 3 3 4 4 4 5 7 5 4 4 4 5 5 6 7 8
2 2 2 2 2 2 3 3 2 2 2 2 1 2 2 2 2 3 3 3 4 4 5 5 5 5 5 4 4 4 4 4 4 5 6 4 4 3 4 5 6 5 7
2 2 2 3 3 2 2 2 2 2 2 2 2 2 2 2 2 2 2 2 3 3 4 4 5 5 6 5 5 4 4 3 4 4 5 4 4 3 3 4 5 4 5
2 2 3 3 3 2 2 2 2 2 2 2 2 1 1 2 2 2 2 2 2 2 3 3 4 5 6 5 4 4 4 4 4 4 5 5 5 3 4 3 5 5 5
2 3 3 3 3 3 2 2 2 2 2 1 1 1 1 2 3 2 1 1 2 2 2 2 2 3 4 5 6 6 6 5 5 5 5 6 6 5 4 4 4 5 5
2 3 3 3 3 3 2 2 2 2 1 1 1 1 2 2 3 2 1 0 0 1 1 1 2 2 3 2 3 4 5 7 7 6 6 7 6 5 5 5 5 5 5
3 3 3 3 3 2 2 2 2 1 1 1 1 1 1 2 3 3 2 1 1 0 1 1 2 2 3 2 2 3 3 4 5 4 5 6 6 5 5 6 6 5 4
3 3 3 3 3 3 2 2 2 1 1 1 1 1 1 2 3 3 3 1 1 1 1 1 1 2 3 3 2 3 3 3 4 5 6 6 7 7 5 3 3 3 5
3 3 3 3 2 2 2 2 2 1 1 1 1 1 1 2 3 3 3 1 1 1 1 1 3 3 4 4 2 2 3 3 3 3 4 5 4 5 5 4 4 4 3
3 3 3 3 2 2 2 2 2 2 2 1 2 2 2 2 3 3 3 1 0 0 1 2 2 4 4 5 4 3 4 3 2 2 3 3 3 2 2 2 2 3 3
3 3 3 3 3 2 2 2 2 1 1 1 2 2 2 2 3 3 4 4 3 1 1 1 2 4 5 4 4 3 3 3 1 2 2 3 3 3 2 2 2 2 2
3 3 3 3 3 3 2 1 1 1 1 1 1 2 2 2 2 4 4 4 5 3 1 3 4 5 5 3 3 4 3 2 1 2 3 3 3 3 2 2 2 2 2
3 3 3 3 3 3 2 2 1 1 1 1 1 1 2 2 2 2 2 2 4 3 2 3 5 5 5 4 4 3 2 2 1 2 3 3 3 2 2 2 2 2 2
3 3 3 2 2 2 2 2 2 1 1 1 1 1 1 2 3 5 3 2 2 1 2 2 2 3 3 3 3 3 3 3 2 2 2 3 3 3 2 2 1 1 2
3 3 2 2 2 2 2 3 5 4 5 4 4 3 2 3 4 4 5 5 4 4 3 2 2 3 3 3 3 3 3 3 3 3 2 2 2 2 3 2 2 2 2
2 2 2 2 2 2 2 2 3 4 6 6 5 5 4 4 4 4 4 5 5 5 3 2 2 2 3 3 3 2 3 3 3 3 3 3 2 2 2 2 2 2 2
2 2 2 2 1 1 1 2 2 2 3 3 4 5 5 5 5 5 4 3 3 3 2 2 2 2 2 3 3 3 3 3 2 3 3 3 2 2 2 2 3 3 3
2 1 1 1 1 1 1 1 1 2 2 2 3 3 5 5 5 5 4 2 1 1 2 2 2 2 2 3 3 3 3 3 3 2 2 3 3 2 2 2 2 4 3
2 2 2 1 1 1 1 1 1 1 1 2 2 2 3 2 2 3 3 2 1 1 2 2 2 2 2 2 3 3 3 3 3 2 2 3 2 2 2 3 3 3 3
1 2 2 2 1 1 1 1 1 1 1 2 2 3 4 2 1 2 2 2 2 2 2 2 2 2 2 3 2 3 3 3 3 2 2 2 3 2 2 2 2 2 2
1 1 1 1 1 1 1 1 1 1 2 2 2 3 3 2 1 2 2 2 2 2 2 2 2 2 3 3 3 3 3 3 3 3 3 2 2 2 2 2 2 2 2
0 1 1 1 1 2 2 1 1 1 2 2 2 2 2 2 2 2 2 3 3 3 3 2 2 3 3 3 3 3 3 3 3 3 3 2 2 2 2 2 2 2 2
0 1 1 1 1 1 1 2 1 1 1 1 2 2 2 2 2 3 3 3 3 3 3 3 3 4 5 4 3 3 4 5 4 4 3 3 3 2 2 2 2 2 2
1 1 1 1 1 1 1 1 1 1 2 2 2 2 2 2 2 3 3 3 3 3 4 4 3 3 4 4 4 4 5 6 5 4 3 2 2 2 2 2 2 2 1
1 1 1 1 1 1 1 1 2 2 2 2 2 2 2 2 3 3 3 3 3 3 4 3 4 4 5 4 4 5 5 5 5 4 2 1 1 2 2 2 2 2 1
Wind_Direction
345 335 332 310 305 305 288 281 278 276 269 272 257 250 247 235 220 213 233 237 229 233 229 225 232 228 226 226 225 228 233 239 263 280 275 279 274 284 296 297 298 294 293
337 336 329 320 328 323 302 290 274 272 273 269 275 276 266 246 226 215 228 235 231 228 227 228 234 232 229 228 226 232 239 241 252 275 285 280 274 278 286 292 299 297 292
343 346 339 329 323 303 292 294 298 301 300 293 283 276 279 264 245 229 220 230 233 232 230 229 232 224 230 229 227 234 241 251 247 260 277 284 281 285 293 294 294 295 295
348 346 333 325 315 304 310 315 316 319 308 300 290 283 283 279 258 239 228 227 240 247 244 239 238 233 234 233 236 236 237 243 247 259 272 281 283 284 282 288 295 296 294
336 330 318 318 318 321 320 313 319 309 300 291 295 293 302 282 257 235 219 223 225 235 242 242 243 244 248 250 251 241 234 244 252 260 268 276 278 280 278 280 285 297 293
333 323 319 324 324 323 314 318 323 314 314 319 311 302 303 298 293 285 258 206 222 227 238 244 258 260 268 273 272 269 256 249 247 252 264 269 273 270 275 279 283 295 294
345 337 334 333 331 325 324 335 326 316 317 311 308 314 302 303 316 316 328 54 183 227 231 241 277 286 294 276 290 294 287 279 266 258 259 262 266 264 264 272 273 276 276
348 345 345 343 333 331 342 341 333 320 306 293 304 311 312 319 335 345 14 49 80 347 262 241 247 268 277 276 276 276 275 279 275 267 257 263 264 261 254 257 263 271 273
350 340 337 336 333 338 339 331 329 329 336 340 346 343 335 324 347 2 15 66 67 35 336 295 259 258 287 301 286 278 284 292 296 282 277 278 279 279 271 265 267 272 280
335 331 332 334 336 331 319 324 343 352 346 355 8 358 329 313 342 1 14 75 61 21 350 320 303 300 301 305 288 271 281 289 300 304 303 302 303 297 289 265 256 259 274
327 333 336 332 329 322 327 343 354 357 4 18 17 359 346 337 343 1 8 33 75 352 326 321 313 317 310 306 301 283 279 290 291 294 299 302 308 309 302 290 268 251 258
344 351 343 337 337 343 345 347 350 2 18 24 24 10 359 341 358 3 6 9 10 4 315 308 314 326 325 317 313 314 308 310 314 314 312 309 311 309 301 295 283 268 256
358 356 348 349 355 353 343 331 350 15 18 7 17 5 354 354 358 1 6 14 10 9 353 344 342 344 344 340 344 340 329 327 335 318 304 300 299 298 299 297 288 282 285
356 352 354 358 1 6 2 357 359 353 347 350 359 359 349 350 347 343 353 12 13 9 4 3 3 3 4 7 8 1 359 357 336 304 299 306 312 313 308 299 296 308 313
352 349 350 358 357 5 10 2 351 327 312 328 305 285 317 327 334 345 357 8 4 3 15 27 18 9 20 19 15 6 2 360 354 333 316 316 319 322 319 315 299 309 296
351 347 341 343 351 1 11 9 11 9 10 8 9 7 1 359 356 3 8 13 14 25 33 34 16 11 8 1 359 355 351 347 340 338 334 320 318 320 322 325 318 302 295
333 332 338 347 349 350 358 4 359 5 12 17 17 15 14 12 14 14 20 24 27 34 43 27 4 360 356 353 350 343 334 332 335 335 331 325 322 324 324 323 323 317 310
329 337 346 336 335 335 341 348 347 351 355 0 4 11 16 15 13 13 19 33 28 26 27 5 347 345 341 338 336 331 328 331 336 332 326 321 321 323 324 323 323 318 310
329 327 331 328 332 334 343 350 349 348 348 345 350 358 6 11 16 19 24 37 30 9 357 343 333 328 325 325 325 322 322 321 323 322 322 322 319 320 318 317 316 318 313
334 346 354 350 348 352 352 353 342 336 337 339 332 329 335 356 13 11 14 13 6 341 331 324 321 319 316 315 317 319 320 320 320 316 316 318 317 313 309 311 310 309 311
328 336 357 1 351 338 336 332 321 319 317 315 313 316 333 351 348 342 343 334 322 315 311 308 308 310 310 312 310 310 311 311 310 309 312 312 314 315 307 302 305 310 311
310 319 325 329 332 332 331 324 315 307 307 311 319 323 342 2 342 327 320 317 315 314 307 295 295 295 293 295 297 297 301 304 303 303 305 305 306 310 310 306 308 310 315
292 316 328 326 322 328 340 327 315 310 311 315 318 323 328 332 324 318 316 317 318 316 314 305 300 297 292 287 283 280 285 285 288 290 294 302 306 304 301 299 298 302 310
290 296 304 315 320 318 314 312 311 311 314 313 316 315 318 315 311 308 308 310 312 313 308 301 292 291 294 296 291 283 276 278 279 272 269 275 281 288 288 292 296 295 296
296 298 304 307 310 311 316 317 313 314 312 311 309 309 311 312 308 306 308 310 310 308 307 304 296 293 293 297 298 293 290 289 288 282 260 249 270 276 277 278 282 295 301
339 326 319 318 312 311 310 307 305 305 300 298 294 293 296 298 298 301 307 310 311 311 311 310 307 304 303 301 298 296 294 294 296 295 268 239 265 270 270 271 278 284 299
Height
1457 1457 1456 1456 1455 1455 1455 1455 1455 1455 1455 1455 1455 1455 1456 1457 1458 1459 1460 1461 1461 1462 1463 1464 1465 1465 1466 1466 1467 1467 1467 1466 1464 1461 1462 1461 1460 1459 1458 1457 1455 1454 1452
1455 1454 1454 1454 1453 1452 1452 1452 1452 1452 1452 1452 1451 1452 1452 1453 1453 1454 1455 1456 1457 1457 1458 1459 1460 1461 1461 1461 1462 1461 1462 1461 1460 1457 1456 1456 1455 1454 1453 1452 1450 1449 1447
1454 1453 1452 1451 1451 1450 1450 1450 1449 1449 1448 1448 1448 1449 1448 1449 1450 1450 1451 1452 1452 1453 1454 1454 1455 1455 1456 1456 1456 1456 1456 1456 1456 1454 1451 1451 1450 1449 1448 1447 1445 1444 1442
1452 1451 1450 1449 1448 1447 1447 1447 1446 1446 1445 1445 1445 1445 1445 1445 1446 1446 1446 1447 1447 1448 1449 1450 1450 1451 1451 1451 1451 1452 1452 1451 1451 1449 1447 1446 1445 1445 1444 1442 1440 1439 1437
1450 1449 1448 1447 1446 1445 1444 1444 1443 1443 1443 1443 1442 1442 1442 1442 1442 1442 1443 1443 1443 1444 1444 1445 1446 1446 1447 1447 1447 1447 1447 1447 1446 1445 1443 1442 1441 1440 1439 1438 1436 1434 1432
1448 1447 1446 1445 1444 1443 1442 1442 1441 1441 1441 1440 1440 1439 1439 1439 1439 1440 1439 1439 1439 1440 1440 1441 1441 1442 1442 1442 1443 1443 1443 1442 1441 1440 1439 1438 1436 1436 1435 1434 1433 1430 1428
1447 1446 1445 1443 1442 1441 1440 1440 1439 1438 1438 1438 1437 1437 1437 1437 1436 1436 1436 1436 1436 1436 1436 1437 1437 1438 1438 1438 1438 1438 1438 1437 1437 1437 1435 1433 1432 1432 1431 1430 1429 1427 1425
1445 1444 1443 1442 1440 1439 1438 1437 1437 1436 1436 1435 1435 1435 1434 1434 1434 1433 1432 1432 1432 1433 1433 1434 1434 1434 1434 1434 1433 1433 1432 1432 1432 1432 1431 1429 1429 1428 1427 1426 1425 1423 1421
1444 1442 1441 1440 1439 1437 1436 1435 1435 1434 1433 1433 1432 1432 1431 1431 1431 1430 1430 1429 1429 1429 1430 1431 1431 1430 1430 1430 1430 1429 1428 1427 1428 1427 1426 1425 1424 1424 1423 1422 1421 1419 1417
1442 1441 1440 1439 1437 1436 1435 1434 1433 1432 1431 1430 1430 1430 1429 1429 1429 1428 1428 1427 1426 1427 1427 1427 1427 1427 1427 1427 1426 1425 1424 1423 1424 1423 1422 1421 1420 1419 1419 1418 1417 1416 1414
1441 1439 1438 1437 1436 1434 1433 1432 1431 1430 1429 1429 1428 1428 1428 1428 1427 1426 1426 1425 1424 1424 1424 1424 1424 1424 1424 1423 1423 1422 1421 1421 1420 1419 1418 1417 1416 1415 1415 1414 1413 1413 1411
1439 1438 1437 1435 1434 1433 1432 1431 1430 1429 1428 1427 1427 1426 1426 1426 1425 1425 1424 1424 1423 1422 1421 1422 1421 1421 1421 1420 1420 1419 1418 1418 1417 1415 1414 1413 1412 1412 1411 1410 1410 1409 1408
1438 1437 1436 1434 1433 1432 1431 1429 1428 1427 1426 1426 1425 1425 1424 1424 1424 1423 1423 1422 1421 1420 1420 1420 1419 1419 1418 1417 1417 1416 1415 1415 1413 1412 1411 1410 1410 1409 1408 1407 1406 1406 1405
1437 1436 1434 1433 1432 1430 1429 1428 1427 1426 1425 1425 1424 1423 1423 1422 1422 1422 1421 1420 1419 1419 1418 1418 1417 1417 1416 1415 1414 1414 1413 1412 1411 1410 1409 1408 1407 1406 1405 1404 1403 1402 1401
1436 1435 1433 1432 1431 1429 1428 1427 1426 1426 1425 1424 1423 1423 1422 1421 1421 1421 1420 1419 1418 1418 1417 1416 1416 1415 1414 1413 1412 1412 1411 1410 1409 1408 1407 1406 1405 1404 1403 1402 1401 1400 1399
1435 1433 1432 1431 1429 1428 1427 1426 1426 1425 1424 1423 1423 1422 1421 1421 1420 1420 1419 1418 1417 1417 1416 1415 1414 1413 1413 1412 1411 1410 1409 1408 1408 1407 1405 1404 1403 1402 1401 1400 1399 1398 1397
1433 1432 1431 1430 1428 1427 1426 1425 1424 1424 1423 1423 1422 1421 1421 1420 1419 1418 1417 1417 1416 1416 1415 1414 1413 1413 1412 1411 1410 1409 1408 1407 1407 1405 1404 1403 1402 1401 1400 1398 1398 1397 1396
1433 1431 1430 1429 1428 1427 1426 1425 1424 1422 1421 1421 1421 1420 1420 1419 1418 1417 1416 1416 1415 1414 1414 1413 1412 1412 1411 1410 1409 1408 1407 1406 1405 1404 1403 1402 1401 1399 1398 1397 1396 1395 1394
1431 1430 1429 1428 1427 1426 1425 1424 1423 1422 1421 1420 1419 1419 1419 1418 1417 1416 1415 1415 1414 1413 1413 1412 1411 1411 1410 1409 1408 1407 1406 1405 1404 1403 1401 1400 1399 1398 1397 1396 1395 1394 1393
1430 1429 1428 1427 1426 1425 1425 1423 1422 1421 1420 1420 1419 1418 1417 1417 1416 1415 1414 1413 1413 1412 1411 1411 1410 1409 1408 1408 1407 1406 1405 1403 1402 1401 1400 1399 1398 1397 1396 1395 1394 1393 1392
1429 1428 1427 1426 1425 1425 1424 1423 1422 1421 1420 1419 1418 1418 1417 1416 1415 1414 1413 1413 1412 1411 1410 1409 1409 1408 1407 1406 1405 1404 1403 1402 1401 1400 1399 1398 1397 1396 1395 1394 1393 1392 1391
1428 1427 1426 1425 1425 1424 1423 1422 1421 1420 1419 1418 1417 1417 1416 1415 1415 1414 1413 1412 1411 1410 1409 1408 1407 1406 1405 1405 1403 1402 1401 1400 1399 1398 1397 1396 1396 1395 1394 1393 1392 1391 1390
1427 1426 1425 1424 1424 1423 1422 1421 1420 1419 1418 1417 1417 1416 1415 1414 1413 1413 1412 1411 1410 1409 1408 1407 1406 1405 1404 1403 1402 1401 1400 1399 1398 1397 1396 1395 1395 1394 1393 1392 1391 1391 1390
1425 1425 1424 1423 1422 1422 1421 1420 1419 1418 1417 1416 1416 1415 1414 1413 1412 1411 1410 1409 1408 1407 1406 1405 1404 1403 1402 1401 1400 1399 1398 1397 1396 1395 1395 1394 1393 1393 1392 1391 1391 1390 1389
1424 1423 1423 1422 1421 1420 1420 1419 1418 1417 1416 1415 1414 1414 1413 1412 1411 1410 1409 1408 1407 1405 1404 1403 1402 1401 1400 1399 1398 1397 1396 1395 1395 1394 1393 1393 1392 1391 1391 1390 1390 1389 1388
1423 1422 1421 1421 1420 1419 1418 1417 1417 1416 1415 1414 1413 1413 1412 1411 1410 1409 1408 1406 1405 1404 1403 1402 1401 1400 1399 1398 1397 1396 1395 1394 1393 1392 1392 1391 1391 1390 1390 1389 1389 1388 1388